Regional Weather Roundup
Issued by NWS Upton, NY

Home | Current Version | Previous Version | Text Only | Print | Product List | Glossary On
Versions: 1 2 3 4 5 6 7 8 9 10 11 12 13 14 15 16 17 18 19 20 21 22 23 24 25 26 27 28 29 30 31 32 33 34 35 36 37 38 39 40 41 42 43 44 45 46 47 48 49 50
000
ASUS41 KOKX 250705
RWROKX

REGIONAL WEATHER ROUNDUP
NATIONAL WEATHER SERVICE NEW YORK NY
300 AM EDT MON JUL 25 2016

NOTE: "FAIR" INDICATES FEW OR NO CLOUDS BELOW 12,000 FEET WITH NO
SIGNIFICANT WEATHER AND/OR OBSTRUCTIONS TO VISIBILITY.

NYZ071-072-176-178-NJZ106-104-250800-
NEW YORK CITY METRO AREA

CITY           SKY/WX    TMP DP  RH WIND       PRES   REMARKS
Central Park   CLOUDY    81  65  58 VRB3      29.97F
LaGuardia APRT CLOUDY    83  65  54 S6        29.93F
Kennedy INTL   CLOUDY    76  68  76 S3        29.95F
Newark/Liberty CLOUDY    81  65  58 S6        29.94S
BRNX BOT. GARD   N/A     81  64  57 E2        29.95F
Wall St Helipt CLOUDY    81  66  61 SW5       29.95S
Teterboro      CLOUDY    81  64  56 S5        29.92F
$$

NYZ177-179-078>081-250800-
LONG ISLAND NEW YORK

CITY           SKY/WX    TMP DP  RH WIND       PRES   REMARKS
FARMINGDALE    CLOUDY    75  69  81 SW5       29.96S
ISLIP          CLEAR     75  72  90 SW9       29.95F
SHIRLEY        PTCLDY    73  70  90 S3        29.96F
RIVERHEAD      NOT AVBL
WESTHAMPTON    PTCLDY    69  66  90 S3        29.98S
SOUTHAMPTON      N/A     73  70  88 SW2       29.92F
BRIDGEHAMPTON    N/A     70  66  88 CALM      29.95F
EAST HAMPTON   FAIR      72  67  83 SW3       29.95F
MONTAUK POINT    N/A     73  66  78 VRB3      29.97F
$$

NYZ052-065-067-250800-
HUDSON VALLEY

CITY           SKY/WX    TMP DP  RH WIND       PRES   REMARKS
WHITE PLAINS   CLOUDY    72  67  84 CALM      29.95F
NEWBURGH       CLEAR     72  68  88 CALM      29.96S
MONTGOMERY     PTCLDY    68  65  90 CALM      29.94S
POUGHKEEPSIE   CLEAR     70  65  84 CALM      29.93S
ALBANY         CLEAR     68  64  87 N3        29.94S
$$

NJZ001-105-106-008-010-013-015-019>022-104-250800-
NEW JERSEY

CITY           SKY/WX    TMP DP  RH WIND       PRES   REMARKS
NEWARK/LIBERTY CLOUDY    81  65  58 S6        29.94S
TETERBORO      CLOUDY    81  64  56 S5        29.92F
CALDWELL       CLOUDY    81  66  60 SW3       29.94F
MORRISTOWN     PTCLDY    75  64  69 CALM      29.94S
SOMERVILLE     CLOUDY    75  69  81 CALM      29.93S
SUSSEX         PTCLDY    71  67  87 CALM      29.94F
ANDOVER          N/A     73  66  78 CALM      29.95S
TRENTON        CLOUDY    79  64  60 S3        29.95S
MILLVILLE      CLOUDY    78  75  90 S3        29.96F
ATLANTIC CITY  CLOUDY    78  75  90 S9        29.96F FOG
WRIGHTSTOWN    CLOUDY    75  71  88 SW3       29.93S
TOMS RIVER     CLOUDY    76  74  93 SW7       29.96S
BELMAR         CLOUDY    76  70  82 S3        29.97F
$$

PAZ047>061-062-071-250800-
EASTERN PENNSYLVANIA

CITY           SKY/WX    TMP DP  RH WIND       PRES   REMARKS
PHILADELPHIA   CLOUDY    81  69  67 S6        29.96S
ALLENTOWN      CLOUDY    78  67  68 CALM      29.95S
SCRANTON       CLOUDY    77  66  68 SW3       29.96S
$$

CTZ002-004>006-009-010-012-RIZ004-006-007-MAZ004-011-015-250800-
SOUTHERN NEW ENGLAND
 IN CT

CITY           SKY/WX    TMP DP  RH WIND       PRES   REMARKS
BRADLEY INTL   CLOUDY    68  61  78 CALM      29.94F
HARTFORD       CLEAR     74  68  81 CALM      29.95S
DANBURY        CLEAR     68  65  90 CALM      29.97F
WTRBRY/OXFORD    N/A     66  63  88 CALM      29.98S
BRIDGEPORT     CLEAR     75  69  81 CALM      29.94F
MERIDEN        PTCLDY    68  64  87 CALM      29.95F
NEW HAVEN      PTCLDY    70  68  93 CALM      29.96S
CHESTER        FAIR      72  70  94 CALM      29.98R
GROTON         CLEAR     71  66  84 CALM      29.95F
WILLIMANTIC    NOT AVBL

 IN RI

CITY           SKY/WX    TMP DP  RH WIND       PRES   REMARKS
PROVIDENCE     CLEAR     71  64  78 CALM      29.96S
BLOCK ISLAND   CLEAR     70  65  84 SW8       29.97F
WESTERLY       CLEAR     67  62  84 CALM      29.96F

 IN MA

CITY           SKY/WX    TMP DP  RH WIND       PRES   REMARKS
BOSTON         CLEAR     69  65  86 CALM      29.95S
WORCESTER      CLEAR     71  50  47 S3        29.99F
WESTFIELD      CLOUDY    68  60  75 N3        29.96S
PROVINCETOWN   CLEAR     64  63  96 SW3       29.95S
NANTUCKET      CLEAR     69  67  93 SW8       29.96F
$$

ANZ330-335-338-340-345-350-353-355-250800-
COASTAL MARINE OBSERVATIONS


STATION/POSITION TIME  SKY/WX   TEMP    WIND        PRES    VSBY  WAVE
                                AIR SEA DIR/SP/G                  HT/PER
                 (UTC)          (F)     (DEG/KT/KT) (MB)    (MI)  (FT/S)
NY HARB ENTRANCE 0550            76 74  210/ 14/ 16 1013.9          3/ 4
20S FIRE ISLAND  0550            76 73  220/ 10/ 12 1014.0          3/ 6
GREAT SOUTH BAY  0615            78 81  240/  8/ 12   N/A
23 SSW MONTAUK P 0550            75 72  230/ 10/ 12 1015.0          2/ 6
15 E BARNEGAT LI NOT AVBL
HUDSON CANYON    0550            78 77              1014.8          2/ 6
KINGS POINT      0600            77 72              1013.9
EXECUTION ROCKS  0600            73      10/  4/  4   N/A
CENTRAL LI SOUND 0630            75 74  220/  8/ 10   N/A           1/ 3
EASTERN LI SOUND 0600            70 68   CALM  /  2   N/A
ROBBINS REEF     0600            79     170/  4/  5 1013.5
$$


>>>>>>>>>>>>>>>>>>>>>>>>>>>> KEY <<<<<<<<<<<<<<<<<<<<<<<<<<<
>                                                          <
>     SKY/WX - SKY CONDITION/PRESENT WEATHER               <
>     TMP    - TEMPERATURE IN FAHRENHEIT                   <
>     DP     - DEWPOINT IN FAHRENHEIT                      <
>     RH     - RELATIVE HUMIDITY IN PERCENT                <
>     WIND   - DIRECTION AND SPEED IN MPH                  <
>     PRES   - MEAN SEA LEVEL PRESSURE IN INCHES OF HG     <
>     WCI    - WIND CHILL INDEX                            <
>     VSB    - VISIBILITY IN MILES                         <
>     HX     - HEAT INDEX                                  <
>     TC     - TEMPERATURE IN CELSIUS                      <
>     VRB    - VARIABLE WIND DIRECTION                     <
>                                                          <
>>>>>>>>>>>>>>>>>>>>>>>>>>>> KEY <<<<<<<<<<<<<<<<<<<<<<<<<<<





USA.gov is the U.S. government's official web portal to all federal, state and local government web resources and services.